Content
SEND FEEDBACK

Daily
Averages
Monthly
Summary
United States of America

FORT KNOX, KENTUCKY


Home > North America > United States > Kentucky
Elevation: 753 feet     Latitude: 37 54N     Longitude: 085 58W

WEATHER
 
SELECT A DAY
Number of Records: 202,838;   Date Range: 1/1/95 - 12/18/14
 
SHARE

PRINT THIS DATA

[ ← Previous Day ]
WEATHER ALMANAC - FEBRUARY 13, 2013
[ Next Day → ]
[ °C ]   °F
Weather ElementAverageHighLow
Temperature35.5 °F40.3 °F (2:55 am)31.3 °F (10:55 pm)
Dewpoint30.1 °F34.7 °F (3:55 pm)27.9 °F (3:55 am)
Humidity81.5 %100 % (12:22 pm)63 % (2:55 am)
Barometer29.85 in29.96 in (11:55 pm)29.77 in (5:55 am)
Wind Speed7 mph12.7 mph (10:30 am)
Wind Gust17.3 mph (10:30 am)
Weather ElementAverage
Visibility6.8 mi
Wind DirectionSW (221.5 °)

Weather ElementTotal
Precipitation0.03 in
Heating Degree Days29.2 (Base 65)
Averaged from 33 records on February 13, 2013
WEATHER CONDITIONS BREAKOUT
WIND DIRECTION BREAKOUT
WEATHER BY HOUR - FEBRUARY 13, 2013
[ °C ]   °F
Local TimeTemperatureDewpointHumidityBarometerVisibilityWind DirectionWind SpeedGust SpeedPrecipitationEventsConditions
1:55 AM39.6 °F28.4 °F64 %29.86 in10.0 miNorth (10°)8.1 mphOvercast
2:55 AM40.3 °F28.4 °F63 %29.84 in10.0 miNNE (20°)11.5 mphOvercast
3:55 AM39.7 °F27.9 °F63 %29.81 in10.0 miNorth (360°)6.9 mphOvercast
4:55 AM39.0 °F28.0 °F65 %29.80 in10.0 miNE (40°)5.8 mphMostly Cloudy
5:55 AM38.7 °F27.9 °F65 %29.77 in10.0 miNNE (30°)5.8 mphScattered Clouds
6:55 AM37.0 °F28.6 °F71 %29.80 in10.0 miNorth (10°)10.4 mphOvercast
7:03 AM37.4 °F28.4 °F70 %29.77 in10.0 miNorth (360°)9.2 mphSnowLight Snow
7:36 AM35.6 °F28.4 °F75 %29.79 in3.0 miNorth (360°)8.1 mphSnowLight Snow
7:55 AM35.8 °F29.3 °F77 %29.82 in4.0 miNNW (340°)5.8 mph0.00 inSnowLight Snow
8:09 AM35.6 °F28.4 °F75 %29.80 in4.0 miNorth (10°)4.6 mphLight Ice Pellets
8:55 AM36.0 °F29.5 °F77 %29.83 in4.0 miNNE (20°)8.1 mph0.00 inSnowLight Snow
9:55 AM34.0 °F28.6 °F81 %29.85 in8.0 miNNW (340°)8.1 mph0.00 inSnowLight Snow
10:04 AM33.8 °F28.4 °F81 %29.82 in3.0 miNNW (340°)6.9 mphSnowLight Snow
10:30 AM32.0 °F30.2 °F93 %29.83 in1.0 miNNW (340°)12.7 mph17.3 mphSnowLight Snow
10:55 AM32.2 °F29.7 °F90 %29.86 in2.0 miNNW (340°)5.8 mph0.00 inSnowLight Snow
11:02 AM32.0 °F30.2 °F93 %29.83 in1.0 miNW (320°)5.8 mphSnowLight Snow
11:55 AM32.4 °F30.9 °F94 %29.87 in1.0 miNW (320°)5.8 mph0.02 inSnowLight Snow
12:22 PM32.0 °F32.0 °F100 %29.84 in1.5 miNNW (330°)8.1 mphSnowLight Snow
12:32 PM32.0 °F32.0 °F100 %29.84 in2.0 miNNW (330°)8.1 mphSnowLight Snow
12:55 PM34.2 °F32.5 °F94 %29.87 in2.0 miVariable5.8 mph0.01 inSnowLight Snow
1:38 PM35.6 °F32.0 °F87 %29.83 in4.0 miWNW (300°)6.9 mphSnowLight Snow
1:55 PM35.8 °F33.4 °F91 %29.85 in4.0 miWest (280°)4.6 mph0.00 inSnowLight Snow
2:09 PM35.6 °F32.0 °F87 %29.82 in10.0 miWest (260°)2.3 mphOvercast
2:55 PM38.7 °F34.3 °F84 %29.84 in10.0 miWSW (240°)5.8 mph0.00 inMostly Cloudy
3:55 PM39.7 °F34.7 °F82 %29.85 in10.0 miWest (270°)6.9 mphMostly Cloudy
4:55 PM40.1 °F32.4 °F74 %29.87 in10.0 miWest (260°)5.8 mphMostly Cloudy
5:55 PM38.8 °F32.0 °F76 %29.89 in10.0 miWSW (240°)9.2 mphMostly Cloudy
6:55 PM35.8 °F30.4 °F81 %29.91 in10.0 miWSW (240°)6.9 mphScattered Clouds
7:55 PM33.8 °F29.1 °F83 %29.93 in10.0 miSSW (210°)6.9 mphScattered Clouds
8:55 PM33.6 °F29.1 °F84 %29.94 in10.0 miSSW (200°)4.6 mphClear
9:55 PM32.5 °F28.8 °F86 %29.95 in10.0 miSouth (190°)3.5 mphClear
10:55 PM31.3 °F28.8 °F90 %29.95 in10.0 miSSW (200°)5.8 mphClear
11:55 PM32.2 °F30.0 °F92 %29.96 in10.0 miSSW (200°)9.2 mphClear
Hourly data recorded from KFTK, located miles away from Fort Knox, Kentucky







STORIES FROM OUR PARTNERS